Location: Newark
(44.3248°N, 23.7839°E)
Time: 23:14:22
(UTC+00:00)

PCSat - Pass Details

Date: 18 April 2024
Orbit: 783 x 792 km, 67.1° (Epoch: 21 May)

Event Time Altitude Azimuth Distance (km) Brightness Sun altitude
Rises 17:47:41 0° 191° (S) 3,261 12.6 -6.6°
Reaches altitude 10° 17:50:10 10° 185° (S) 2,339 11.8 -7.0°
Maximum altitude 17:55:15 46° 114° (ESE) 1,053 9.8 -7.8°
Drops below altitude 10° 18:00:24 10° 42° (NE) 2,360 11.9 -8.7°
Sets 18:02:54 0° 37° (NE) 3,295 12.7 -9.1°
